TimeCST,TemperatureF,Dew PointF,Humidity,Sea Level PressureIn,VisibilityMPH,Wind Direction,Wind SpeedMPH,Gust SpeedMPH,PrecipitationIn,Events,Conditions,WindDirDegrees,DateUTC
12:53 AM,35.1,34.0,96,30.12,5.0,North,6.9,-,N/A,,Overcast,360,2013-01-01 06:53:00
1:53 AM,32.0,32.0,100,30.11,4.0,North,13.8,-,N/A,,Overcast,360,2013-01-01 07:53:00
2:00 AM,32.0,30.2,93,30.11,4.0,North,15.0,-,N/A,,Overcast,10,2013-01-01 08:00:00
2:53 AM,30.9,30.9,100,30.13,4.0,NNE,10.4,-,N/A,,Overcast,20,2013-01-01 08:53:00
3:53 AM,30.0,28.9,96,30.15,5.0,Variable,4.6,-,N/A,,Overcast,0,2013-01-01 09:53:00
4:53 AM,28.9,28.0,96,30.16,5.0,North,5.8,-,N/A,,Overcast,360,2013-01-01 10:53:00
5:36 AM,28.4,26.6,93,30.17,5.0,North,8.1,-,N/A,,Overcast,360,2013-01-01 11:36:00
5:53 AM,28.9,27.0,92,30.19,6.0,North,6.9,-,N/A,,Overcast,350,2013-01-01 11:53:00
7:53 AM,27.0,26.1,96,30.21,4.0,North,8.1,-,N/A,,Overcast,350,2013-01-01 13:53:00
8:53 AM,27.0,25.0,92,30.26,7.0,North,5.8,17.3,N/A,,Overcast,350,2013-01-01 14:53:00
9:53 AM,27.0,24.1,89,30.29,8.0,North,10.4,17.3,N/A,,Overcast,360,2013-01-01 15:53:00
10:53 AM,28.0,25.0,88,30.30,8.0,North,6.9,-,N/A,,Overcast,360,2013-01-01 16:53:00
11:48 AM,26.6,24.8,93,30.28,7.0,North,9.2,-,N/A,,Overcast,360,2013-01-01 17:48:00
11:53 AM,27.0,23.0,85,30.29,7.0,North,8.1,-,N/A,,Overcast,360,2013-01-01 17:53:00
12:45 PM,26.6,24.8,93,30.28,2.5,Variable,4.6,-,0.00,Snow,Light Snow,0,2013-01-01 18:45:00
12:53 PM,27.0,24.1,89,30.28,2.5,North,8.1,-,0.00,Snow,Light Snow,360,2013-01-01 18:53:00
1:03 PM,26.6,24.8,93,30.28,4.0,North,6.9,-,0.00,,Overcast,10,2013-01-01 19:03:00
1:21 PM,26.6,24.8,93,30.28,3.0,North,5.8,-,0.00,Snow,Light Snow,360,2013-01-01 19:21:00
1:53 PM,27.0,24.1,89,30.29,7.0,NNW,4.6,-,0.00,,Overcast,340,2013-01-01 19:53:00
2:22 PM,26.6,23.0,86,30.28,9.0,Variable,4.6,-,N/A,,Overcast,0,2013-01-01 20:22:00
2:53 PM,27.0,23.0,85,30.29,10.0,Variable,4.6,-,N/A,,Overcast,0,2013-01-01 20:53:00
3:53 PM,28.0,23.0,81,30.28,10.0,North,5.8,-,N/A,,Overcast,360,2013-01-01 21:53:00
4:53 PM,27.0,21.9,81,30.29,10.0,Variable,4.6,-,N/A,,Mostly Cloudy,0,2013-01-01 22:53:00
5:53 PM,24.1,21.0,88,30.31,10.0,Calm,Calm,-,N/A,,Clear,0,2013-01-01 23:53:00
6:53 PM,19.9,18.0,92,30.33,10.0,Calm,Calm,-,N/A,,Clear,0,2013-01-02 00:53:00
7:53 PM,19.0,17.1,92,30.33,10.0,Calm,Calm,-,N/A,,Clear,0,2013-01-02 01:53:00
8:53 PM,17.1,15.1,92,30.32,10.0,Calm,Calm,-,N/A,,Clear,0,2013-01-02 02:53:00
9:53 PM,17.1,14.0,88,30.33,10.0,Calm,Calm,-,N/A,,Clear,0,2013-01-02 03:53:00
10:53 PM,14.0,12.9,95,30.33,10.0,Calm,Calm,-,N/A,,Clear,0,2013-01-02 04:53:00
11:53 PM,15.1,12.0,88,30.34,10.0,Calm,Calm,-,N/A,,Clear,0,2013-01-02 05:53:00